TimeCST,TemperatureF,Dew PointF,Humidity,Sea Level PressureIn,VisibilityMPH,Wind Direction,Wind SpeedMPH,Gust SpeedMPH,PrecipitationIn,Events,Conditions,WindDirDegrees,DateUTC
12:55 AM,40.8,39.4,95,30.05,10.0,Calm,Calm,-,N/A,,Clear,0,2012-12-19 06:55:00
1:55 AM,38.7,37.2,95,30.04,10.0,Calm,Calm,-,N/A,,Clear,0,2012-12-19 07:55:00
2:55 AM,37.2,35.6,94,30.04,10.0,Calm,Calm,-,N/A,,Clear,0,2012-12-19 08:55:00
3:55 AM,36.5,34.7,93,30.04,10.0,Calm,Calm,-,N/A,,Clear,0,2012-12-19 09:55:00
4:55 AM,35.6,33.8,93,30.06,10.0,Calm,Calm,-,N/A,,Clear,0,2012-12-19 10:55:00
5:55 AM,35.4,33.3,92,30.07,10.0,Calm,Calm,-,N/A,,Clear,0,2012-12-19 11:55:00
6:55 AM,35.4,34.0,94,30.09,10.0,Calm,Calm,-,N/A,,Clear,0,2012-12-19 12:55:00
7:55 AM,49.1,45.5,87,30.09,10.0,Calm,Calm,-,N/A,,Clear,0,2012-12-19 13:55:00
8:55 AM,56.8,50.2,78,30.11,10.0,NE,1.2,-,N/A,,Partly Cloudy,40,2012-12-19 14:55:00
9:55 AM,64.9,52.2,63,30.12,10.0,South,4.6,-,N/A,,Partly Cloudy,180,2012-12-19 15:55:00
10:55 AM,68.9,51.3,53,30.10,10.0,South,9.2,-,N/A,,Partly Cloudy,180,2012-12-19 16:55:00
11:55 AM,69.8,51.6,52,30.08,10.0,South,9.2,-,N/A,,Partly Cloudy,180,2012-12-19 17:55:00
12:55 PM,70.2,52.5,53,30.05,10.0,SSE,5.8,-,N/A,,Partly Cloudy,150,2012-12-19 18:55:00
1:55 PM,71.1,53.1,53,30.03,10.0,SSE,5.8,-,N/A,,Scattered Clouds,160,2012-12-19 19:55:00
2:55 PM,69.4,54.0,58,30.02,10.0,SSE,12.7,-,N/A,,Scattered Clouds,160,2012-12-19 20:55:00
3:55 PM,67.5,54.5,63,30.03,10.0,South,11.5,-,N/A,,Partly Cloudy,170,2012-12-19 21:55:00
4:55 PM,63.5,55.2,74,30.04,10.0,SE,4.6,-,N/A,,Partly Cloudy,140,2012-12-19 22:55:00
5:55 PM,60.1,54.9,83,30.03,10.0,SE,4.6,-,N/A,,Partly Cloudy,130,2012-12-19 23:55:00
6:55 PM,59.4,54.3,83,30.03,10.0,ESE,4.6,-,N/A,,Scattered Clouds,120,2012-12-20 00:55:00
7:55 PM,59.9,54.7,83,30.02,10.0,SE,8.1,-,N/A,,Partly Cloudy,130,2012-12-20 01:55:00
8:55 PM,59.0,55.4,88,30.04,10.0,SE,8.1,-,N/A,,Partly Cloudy,130,2012-12-20 02:55:00
9:30 PM,59.0,55.4,88,30.02,10.0,SSE,5.8,-,N/A,,Mostly Cloudy,150,2012-12-20 03:30:00
9:55 PM,60.1,56.8,89,30.03,10.0,ESE,5.8,-,N/A,,Mostly Cloudy,120,2012-12-20 03:55:00
10:26 PM,59.0,57.2,94,30.01,10.0,ESE,5.8,-,N/A,,Scattered Clouds,120,2012-12-20 04:26:00
10:55 PM,59.5,57.4,93,30.01,10.0,ESE,5.8,-,N/A,,Scattered Clouds,120,2012-12-20 04:55:00
11:43 PM,59.0,57.2,94,29.99,10.0,ESE,6.9,-,N/A,,Mostly Cloudy,110,2012-12-20 05:43:00
11:55 PM,59.4,56.8,91,29.99,10.0,ESE,6.9,-,N/A,,Mostly Cloudy,120,2012-12-20 05:55:00